Location: Dead Woman Crossing
(43.5369°N, 106.3228°W)
Time: 00:59:58
(UTC+00:00)

O/OREOS (USA 219) - Visible Passes

Search period start: 30 June 2022 00:00
Search period end: 10 July 2022 00:00
Orbit: 621 x 646 km, 72.0° (Epoch: 22 May)

Date Brightness Start Highest point End Pass type
(mag) Time Alt. Az. Time Alt. Az. Time Alt. Az.
30 Jun ? 06:54:26 10° N 06:58:25 28° ENE 07:00:25 20° E visible
30 Jun ? 08:33:43 10° NW 08:37:50 33° WSW 08:37:50 33° WSW visible
01 Jul ? 07:16:07 10° NNW 07:20:41 57° ENE 07:21:37 47° ESE visible
01 Jul ? 08:56:53 10° WNW 08:59:02 15° W 08:59:02 15° W visible
02 Jul ? 05:59:56 10° NNE 06:02:51 16° NE 06:05:28 11° E visible
02 Jul ? 07:38:09 10° NNW 07:42:45 66° WSW 07:42:53 66° WSW visible
03 Jul ? 06:21:11 10° N 06:25:17 31° ENE 06:26:46 25° E visible
03 Jul ? 08:00:37 10° NW 08:04:11 29° W 08:04:11 29° W visible
04 Jul ? 06:42:54 10° NNW 06:47:30 64° ENE 06:48:07 57° ESE visible
04 Jul ? 08:24:01 10° WNW 08:25:32 13° W 08:25:32 13° W visible
05 Jul ? 05:26:35 10° N 05:29:44 18° NE 05:32:04 13° E visible
05 Jul ? 07:05:00 10° NNW 07:09:30 59° WSW 07:09:30 59° WSW visible
06 Jul ? 05:47:55 10° N 05:52:08 34° ENE 05:53:30 28° E visible
06 Jul ? 07:27:32 10° NW 07:30:55 26° W 07:30:55 26° W visible
07 Jul ? 04:33:17 10° NE 04:34:01 10° NE 04:34:46 10° NE visible
07 Jul ? 06:09:42 10° NNW 06:14:20 71° ENE 06:14:57 61° ESE visible
07 Jul ? 07:51:14 10° WNW 07:52:23 12° W 07:52:23 12° W visible
08 Jul ? 04:53:15 10° N 04:56:36 19° NE 04:59:01 14° E visible
08 Jul ? 06:31:51 10° NNW 06:36:21 52° WSW 06:36:27 52° WSW visible
09 Jul ? 05:14:40 10° N 05:18:59 37° ENE 05:20:32 28° E visible
09 Jul ? 06:54:28 10° NW 06:57:58 24° W 06:57:58 24° W visible
